Погода в Тишково

Россия / Астраханская область     46°01′06″N   48°36′35″E
темп.,
°C
ветер,
м/с
пор.,
м/с
влажн.,
%
обл.,
%
осадки,
мм/ч
давл.,
гПа
погр.,
м
26 октября, вт
вт2601:00+5сз4851100 0.0 1028318
04:00+3ссз385694 0.0 1029231
07:00+1сз36655 0.0 1031164
10:00+5ссз45545 0.0 1032685
13:00+8ссз33425 0.0 10311339
16:00+9ссз333935 0.0 10301530
19:00+5ссз22505 0.0 103215
22:00+4сз12565 0.0 103312
27 октября, ср
ср2701:00+3с22625 0.0 103318
04:00+2ссв12640 0.0 103211
07:00+2св11690 0.0 103210
10:00+7всв12523 0.0 1033341
13:00+10ююв33444 0.0 10311221
16:00+9ююв43484 0.0 1030999
19:00+5ююв23683 0.0 103053
22:00+5ююв23744 0.0 102848
28 октября, чт
чт2801:00+6ююв35775 0.0 102781
04:00+5ююв22795 0.0 102625
07:00+6ю22745 0.0 102527
10:00+11ююз356097 0.0 10261169
13:00+11ю3563100 0.0 1024778
16:00+11ююв3473100 0.0 1023500
19:00+10ююв2588100 0.0 1023237
22:00+10ююв2593100 0.3 1021195
29 октября, пт
пт2901:00+9ююз2296100 0.2 102020
04:00+9сз3592100 0.2 1019110
07:00+7зсз3777100 0.0 1020169
10:00+10з583997 0.0 1020488
13:00+10з61062100 0.1 1020602
16:00+8з5980100 0.9 1020692
19:00+8з4985100 0.4 1021497
22:00+9зсз4893100 1.6 1021604
30 октября, сб
сб3001:00+9сз4889100 0.6 1023615
04:00+7ссз6985100 0.9 1026585
07:00+6ссз5986100 0.3 1028463
10:00+7ссз5782100 0.3 1031428
13:00+8ссз457898 0.1 1032398
16:00+11ссз466726 0.1 1033808
19:00+10с4869100 0.0 1035348
22:00+9с4866100 0.0 1036291